Regional Weather Roundup
Issued by NWS Green Bay, WI

Home | Current Version | Previous Version | Graphics & Text | Print | Product List | Glossary Off
Versions: 1 2 3 4 5 6 7 8 9 10 11 12 13 14 15 16 17 18 19 20 21 22 23 24 25 26 27 28 29 30 31 32 33 34 35 36 37 38 39 40 41 42 43 44 45 46 47 48 49 50

000
ASUS43 KGRB 240200
RWRGRB

NORTH-CENTRAL AND NORTHEAST WISCONSIN REGIONAL WEATHER ROUNDUP
NATIONAL WEATHER SERVICE GREEN BAY WI
900 PM CDT SAT JUL 23 2016

WIZ005-009-010>012-018-019-240300-
NORTH CENTRAL WISCONSIN

CITY           SKY/WX    TMP DP  RH WIND       PRES   REMARKS
IRONWOOD       CLOUDY    75  70  83 S8        29.84S
MANITOWISH WTR NOT AVBL
ARBOR VITAE    NOT AVBL
EAGLE RIVER    NOT AVBL
LAND O LAKES   NOT AVBL
RHINELANDER    LGT RAIN  72  68  87 S6        29.91F
PHILLIPS       NOT AVBL
ANTIGO         NOT AVBL
TOMAHAWK       NOT AVBL
MERRILL        NOT AVBL
$$

WIZ013-073-240300-
NORTHEAST WISCONSIN

CITY           SKY/WX    TMP DP  RH WIND       PRES   REMARKS
IRON MOUNTAIN  CLOUDY    76  63  64 SE5       29.90S
MARINETTE      CLOUDY    76  64  66 SE7       29.90F
$$

WIZ017-030-035>037-045-240300-
CENTRAL WISCONSIN

CITY           SKY/WX    TMP DP  RH WIND       PRES   REMARKS
MEDFORD        NOT AVBL
WAUSAU         CLOUDY    71  66  84 SE5       29.87F
MOSINEE        CLOUDY    70  68  94 E5        29.89F
MARSHFIELD     CLOUDY    70  66  87 SE6       29.87S
WISC RAPIDS    CLOUDY    71  66  84 S3        29.88S
STEVENS POINT  NOT AVBL
WAUPACA        NOT AVBL
SHAWANO        NOT AVBL
CLINTONVILLE   NOT AVBL
WAUTOMA        CLOUDY    72  70  93 S9        29.89F
$$

WIZ038-039-048-051-240300-
FOX VALLEY

CITY           SKY/WX    TMP DP  RH WIND       PRES   REMARKS
NWS GREEN BAY  CLOUDY    76  76 100 S5        29.89R
APPLETON       DRIZZLE   73  72  94 SW6       29.90R
OSHKOSH        CLOUDY    73  70  90 S8        29.90R
FOND DU LAC    LGT RAIN  74  71  91 S8        29.92S
$$

WIZ022-050-052-240300-
EAST CENTRAL WISCONSIN

CITY           SKY/WX    TMP DP  RH WIND       PRES   REMARKS
EPHRAIM        NOT AVBL
WASHINGTON ISL NOT AVBL
STURGEON BAY   LGT RAIN  73  65  75 SE9       29.91F
MANITOWOC      NOT AVBL
SHEBOYGAN      LGT RAIN  76  73  91 S8        29.93S
$$

LMZ563-521-522-541>543-240300-
LAKESHORE

STATION/POSITION TIME  TEMP    WIND        PRES    VSBY  WAVE
                       AIR SEA DIR/SP/G                  HT/PER
                 (UTC) (F)     (DEG/KT/KT) (MB)    (MI)  (FT/S)
KEWAUNEE LKSHORE 0100   71                   N/A
NORTHPORT PIER   0100   74     130/  5/  6 1012.5F
N MID LAKE BUOY  0050   74 74  120/  4/  4 1012.4F         0
S GREEN BAY BUOY 0100   77 75  150/ 10/ 12   N/A
CHAMBERS ISLAND  0140   77     120/  6/  8 1012.2F
MENOMINEE LKSHOR 0100   76                   N/A
$$




USA.gov is the U.S. government's official web portal to all federal, state and local government web resources and services.